Time,TemperatureF,DewpointF,PressureIn,WindDirection,WindDirectionDegrees,WindSpeedMPH,WindSpeedGustMPH,Humidity,HourlyPrecipIn,Conditions,Clouds,dailyrainin,SoftwareType,DateUTC
2013-05-04 00:00:00,63.0,40.7,29.98,East,90,8.0,15.0,44,0.00,,,0.00,Weather View 32 v70,2013-05-04 04:00:00,
2013-05-04 00:05:00,63.0,40.7,29.98,East,90,3.0,15.0,44,0.00,,,0.00,Weather View 32 v70,2013-05-04 04:05:00,
2013-05-04 00:10:00,63.0,40.7,29.98,East,90,5.0,15.0,44,0.00,,,0.00,Weather View 32 v70,2013-05-04 04:10:00,
2013-05-04 00:15:00,63.0,41.3,29.98,East,90,3.0,15.0,45,0.00,,,0.00,Weather View 32 v70,2013-05-04 04:15:00,
2013-05-04 00:20:00,63.0,41.8,29.98,East,90,6.0,15.0,46,0.00,,,0.00,Weather View 32 v70,2013-05-04 04:20:00,
2013-05-04 00:25:00,63.0,41.8,29.98,East,90,6.0,15.0,46,0.00,,,0.00,Weather View 32 v70,2013-05-04 04:25:00,
2013-05-04 00:30:00,63.0,41.3,29.98,East,90,8.0,15.0,45,0.00,,,0.00,Weather View 32 v70,2013-05-04 04:30:00,
2013-05-04 00:35:00,63.0,42.4,29.98,East,90,4.0,15.0,47,0.00,,,0.00,Weather View 32 v70,2013-05-04 04:35:00,
2013-05-04 00:45:00,63.0,42.4,29.98,East,90,3.0,15.0,47,0.00,,,0.00,Weather View 32 v70,2013-05-04 04:45:00,
2013-05-04 00:55:00,63.0,43.5,29.98,East,90,3.0,15.0,49,0.00,,,0.00,Weather View 32 v70,2013-05-04 04:55:00,
2013-05-04 01:05:00,62.0,43.1,29.98,NE,45,4.0,15.0,50,0.00,,,0.00,Weather View 32 v70,2013-05-04 05:05:00,
2013-05-04 01:15:00,62.0,44.1,29.97,East,90,0.0,14.0,52,0.00,,,0.00,Weather View 32 v70,2013-05-04 05:15:00,
2013-05-04 01:21:00,61.0,43.2,29.98,East,90,0.0,14.0,52,0.00,,,0.00,Weather View 32 v70,2013-05-04 05:21:00,
2013-05-04 01:30:00,61.0,42.7,29.98,East,90,6.0,14.0,51,0.00,,,0.00,Weather View 32 v70,2013-05-04 05:30:00,
2013-05-04 01:35:00,61.0,42.7,29.98,East,90,5.0,14.0,51,0.00,,,0.00,Weather View 32 v70,2013-05-04 05:35:00,
2013-05-04 01:45:00,61.0,43.2,29.98,East,90,3.0,11.0,52,0.00,,,0.00,Weather View 32 v70,2013-05-04 05:45:00,
2013-05-04 01:55:00,61.0,44.2,29.98,East,90,5.0,10.0,54,0.00,,,0.00,Weather View 32 v70,2013-05-04 05:55:00,
2013-05-04 02:05:00,60.0,43.7,29.98,East,90,4.0,9.0,55,0.00,,,0.00,Weather View 32 v70,2013-05-04 06:05:00,
2013-05-04 02:10:00,60.0,43.7,29.98,East,90,3.0,9.0,55,0.00,,,0.00,Weather View 32 v70,2013-05-04 06:10:00,
2013-05-04 02:20:00,60.0,44.7,29.98,East,90,4.0,9.0,57,0.00,,,0.00,Weather View 32 v70,2013-05-04 06:20:00,
2013-05-04 02:30:00,60.0,45.1,29.98,East,90,4.0,9.0,58,0.00,,,0.00,Weather View 32 v70,2013-05-04 06:30:00,
2013-05-04 02:40:00,59.0,44.7,29.98,East,90,0.0,9.0,59,0.00,,,0.00,Weather View 32 v70,2013-05-04 06:40:00,
2013-05-04 02:50:00,59.0,45.5,29.98,East,90,0.0,8.0,61,0.00,,,0.00,Weather View 32 v70,2013-05-04 06:50:00,
2013-05-04 03:00:00,59.0,46.4,29.98,ENE,67,0.0,8.0,63,0.00,,,0.00,Weather View 32 v70,2013-05-04 07:00:00,
2013-05-04 03:10:00,59.0,46.8,29.98,East,90,2.0,8.0,64,0.00,,,0.00,Weather View 32 v70,2013-05-04 07:10:00,
2013-05-04 03:20:00,59.0,46.8,29.98,ENE,67,2.0,8.0,64,0.00,,,0.00,Weather View 32 v70,2013-05-04 07:20:00,
2013-05-04 03:30:00,59.0,47.6,29.98,ENE,67,0.0,8.0,66,0.00,,,0.00,Weather View 32 v70,2013-05-04 07:30:00,
2013-05-04 03:40:00,58.0,47.9,29.97,NE,45,0.0,7.0,69,0.00,,,0.00,Weather View 32 v70,2013-05-04 07:40:00,
2013-05-04 03:45:00,58.0,48.2,29.97,NE,45,0.0,6.0,70,0.00,,,0.00,Weather View 32 v70,2013-05-04 07:45:00,
2013-05-04 03:55:00,58.0,49.4,29.98,NE,45,2.0,5.0,73,0.00,,,0.00,Weather View 32 v70,2013-05-04 07:55:00,
2013-05-04 04:05:00,58.0,49.7,29.97,East,90,0.0,5.0,74,0.00,,,0.00,Weather View 32 v70,2013-05-04 08:05:00,
2013-05-04 04:15:00,58.0,50.5,29.97,ENE,67,2.0,6.0,76,0.00,,,0.00,Weather View 32 v70,2013-05-04 08:15:00,
2013-05-04 04:23:00,58.0,50.5,29.97,NNE,22,0.0,6.0,76,0.00,,,0.00,Weather View 32 v70,2013-05-04 08:23:00,
2013-05-04 04:30:00,57.0,50.2,29.97,ENE,67,3.0,7.0,78,0.00,,,0.00,Weather View 32 v70,2013-05-04 08:30:00,
2013-05-04 04:35:00,57.0,50.2,29.97,ENE,67,0.0,7.0,78,0.00,,,0.00,Weather View 32 v70,2013-05-04 08:35:00,
2013-05-04 04:45:00,57.0,50.2,29.97,East,90,3.0,7.0,78,0.00,,,0.00,Weather View 32 v70,2013-05-04 08:45:00,
2013-05-04 04:55:00,58.0,50.8,29.98,NE,45,4.0,9.0,77,0.00,,,0.00,Weather View 32 v70,2013-05-04 08:55:00,
2013-05-04 05:05:00,57.0,50.2,29.97,NE,45,3.0,9.0,78,0.00,,,0.00,Weather View 32 v70,2013-05-04 09:05:00,
2013-05-04 05:15:00,57.0,50.2,29.97,East,90,4.0,9.0,78,0.00,,,0.00,Weather View 32 v70,2013-05-04 09:15:00,
2013-05-04 05:20:00,57.0,50.2,29.97,ENE,67,3.0,9.0,78,0.00,,,0.00,Weather View 32 v70,2013-05-04 09:20:00,
2013-05-04 05:30:00,57.0,50.2,29.97,East,90,3.0,9.0,78,0.00,,,0.00,Weather View 32 v70,2013-05-04 09:30:00,
2013-05-04 05:35:00,56.0,49.6,29.97,NE,45,5.0,9.0,79,0.00,,,0.00,Weather View 32 v70,2013-05-04 09:35:00,
2013-05-04 05:45:00,56.0,50.2,29.96,ENE,67,0.0,9.0,81,0.00,,,0.00,Weather View 32 v70,2013-05-04 09:45:00,
2013-05-04 05:50:00,56.0,50.2,29.97,ENE,67,8.0,10.0,81,0.00,,,0.00,Weather View 32 v70,2013-05-04 09:50:00,
2013-05-04 06:00:00,56.0,50.9,29.97,NE,45,3.0,10.0,83,0.00,,,0.00,Weather View 32 v70,2013-05-04 10:00:00,
2013-05-04 06:10:00,56.0,50.9,29.96,NE,45,6.0,10.0,83,0.00,,,0.00,Weather View 32 v70,2013-05-04 10:10:00,
2013-05-04 06:20:00,56.0,50.9,29.97,East,90,0.0,10.0,83,0.00,,,0.00,Weather View 32 v70,2013-05-04 10:20:00,
2013-05-04 06:30:00,56.0,50.2,29.98,NE,45,7.0,10.0,81,0.00,,,0.00,Weather View 32 v70,2013-05-04 10:30:00,
2013-05-04 06:40:00,55.0,49.6,29.97,East,90,4.0,10.0,82,0.00,,,0.00,Weather View 32 v70,2013-05-04 10:40:00,
2013-05-04 06:50:00,55.0,49.3,29.98,East,90,3.0,10.0,81,0.00,,,0.00,Weather View 32 v70,2013-05-04 10:50:00,
2013-05-04 07:00:00,55.0,49.9,29.98,East,90,0.0,9.0,83,0.00,,,0.00,Weather View 32 v70,2013-05-04 11:00:00,
2013-05-04 07:10:00,55.0,49.3,29.98,NE,45,4.0,9.0,81,0.00,,,0.00,Weather View 32 v70,2013-05-04 11:10:00,
2013-05-04 07:15:00,55.0,48.6,29.98,East,90,6.0,10.0,79,0.00,,,0.00,Weather View 32 v70,2013-05-04 11:15:00,
2013-05-04 07:24:00,56.0,48.9,29.98,ENE,67,3.0,10.0,77,0.00,,,0.00,Weather View 32 v70,2013-05-04 11:24:00,
2013-05-04 07:30:00,57.0,48.4,29.97,ENE,67,0.0,10.0,73,0.00,,,0.00,Weather View 32 v70,2013-05-04 11:30:00,
2013-05-04 07:35:00,57.0,47.7,29.97,ENE,67,3.0,10.0,71,0.00,,,0.00,Weather View 32 v70,2013-05-04 11:35:00,
2013-05-04 07:45:00,58.0,47.9,29.98,ENE,67,3.0,10.0,69,0.00,,,0.00,Weather View 32 v70,2013-05-04 11:45:00,
2013-05-04 07:55:00,59.0,47.2,29.97,East,90,4.0,10.0,65,0.00,,,0.00,Weather View 32 v70,2013-05-04 11:55:00,
2013-05-04 08:05:00,59.0,45.5,29.96,East,90,11.0,11.0,61,0.00,,,0.00,Weather View 32 v70,2013-05-04 12:05:00,
2013-05-04 08:20:00,58.0,44.6,29.96,NE,45,3.0,12.0,61,0.00,,,0.00,Weather View 32 v70,2013-05-04 12:20:00,
2013-05-04 08:25:00,58.0,44.6,29.96,East,90,4.0,12.0,61,0.00,,,0.00,Weather View 32 v70,2013-05-04 12:25:00,
2013-05-04 08:35:00,58.0,44.2,29.96,East,90,2.0,13.0,60,0.00,,,0.00,Weather View 32 v70,2013-05-04 12:35:00,
2013-05-04 08:45:00,59.0,45.5,29.97,East,90,3.0,16.0,61,0.00,,,0.00,Weather View 32 v70,2013-05-04 12:45:00,
2013-05-04 08:50:00,59.0,44.2,29.96,East,90,3.0,16.0,58,0.00,,,0.00,Weather View 32 v70,2013-05-04 12:50:00,
2013-05-04 09:00:00,59.0,43.3,29.96,East,90,4.0,16.0,56,0.00,,,0.00,Weather View 32 v70,2013-05-04 13:00:00,
2013-05-04 09:05:00,59.0,43.3,29.96,East,90,7.0,16.0,56,0.00,,,0.00,Weather View 32 v70,2013-05-04 13:05:00,
2013-05-04 09:10:00,59.0,40.9,29.96,ENE,67,8.0,16.0,51,0.00,,,0.00,Weather View 32 v70,2013-05-04 13:10:00,
2013-05-04 09:20:00,59.0,41.9,29.96,East,90,3.0,17.0,53,0.00,,,0.00,Weather View 32 v70,2013-05-04 13:20:00,
2013-05-04 09:26:00,59.0,41.4,29.96,East,90,1.0,17.0,52,0.00,,,0.00,Weather View 32 v70,2013-05-04 13:26:00,
2013-05-04 09:35:00,59.0,41.4,29.96,East,90,7.0,17.0,52,0.00,,,0.00,Weather View 32 v70,2013-05-04 13:35:00,
2013-05-04 09:40:00,60.0,41.3,29.96,East,90,11.0,17.0,50,0.00,,,0.00,Weather View 32 v70,2013-05-04 13:40:00,
2013-05-04 09:50:00,60.0,42.8,29.96,East,90,0.0,17.0,53,0.00,,,0.00,Weather View 32 v70,2013-05-04 13:50:00,
2013-05-04 10:00:00,60.0,41.8,29.96,East,90,8.0,17.0,51,0.00,,,0.00,Weather View 32 v70,2013-05-04 14:00:00,
2013-05-04 10:10:00,60.0,40.7,29.96,East,90,5.0,17.0,49,0.00,,,0.00,Weather View 32 v70,2013-05-04 14:10:00,
2013-05-04 10:20:00,59.0,40.3,29.97,East,90,6.0,15.0,50,0.00,,,0.00,Weather View 32 v70,2013-05-04 14:20:00,
2013-05-04 10:26:00,60.0,42.3,29.97,East,90,9.0,15.0,52,0.00,,,0.00,Weather View 32 v70,2013-05-04 14:26:00,
2013-05-04 10:35:00,60.0,41.8,29.97,East,90,5.0,14.0,51,0.00,,,0.00,Weather View 32 v70,2013-05-04 14:35:00,
2013-05-04 10:40:00,60.0,41.3,29.97,East,90,4.0,14.0,50,0.00,,,0.00,Weather View 32 v70,2013-05-04 14:40:00,
2013-05-04 10:50:00,60.0,42.3,29.96,East,90,4.0,14.0,52,0.00,,,0.00,Weather View 32 v70,2013-05-04 14:50:00,
2013-05-04 11:00:00,62.0,42.6,29.96,East,90,6.0,14.0,49,0.00,,,0.00,Weather View 32 v70,2013-05-04 15:00:00,
2013-05-04 11:10:00,64.0,44.4,29.95,East,90,5.0,17.0,49,0.00,,,0.00,Weather View 32 v70,2013-05-04 15:10:00,
2013-05-04 11:20:00,62.0,42.6,29.95,East,90,7.0,17.0,49,0.00,,,0.00,Weather View 32 v70,2013-05-04 15:20:00,
2013-05-04 11:27:00,63.0,42.4,29.95,East,90,7.0,17.0,47,0.00,,,0.00,Weather View 32 v70,2013-05-04 15:27:00,
2013-05-04 11:35:00,63.0,44.0,29.95,ENE,67,7.0,17.0,50,0.00,,,0.00,Weather View 32 v70,2013-05-04 15:35:00,
2013-05-04 11:40:00,64.0,44.9,29.95,East,90,5.0,17.0,50,0.00,,,0.00,Weather View 32 v70,2013-05-04 15:40:00,
2013-05-04 11:50:00,64.0,43.9,29.94,ENE,67,5.0,17.0,48,0.00,,,0.00,Weather View 32 v70,2013-05-04 15:50:00,
2013-05-04 12:00:00,65.0,45.3,29.94,East,90,5.0,17.0,49,0.00,,,0.00,Weather View 32 v70,2013-05-04 16:00:00,
2013-05-04 12:10:00,65.0,45.3,29.93,East,90,5.0,16.0,49,0.00,,,0.00,Weather View 32 v70,2013-05-04 16:10:00,
2013-05-04 12:20:00,66.0,45.1,29.93,East,90,6.0,15.0,47,0.00,,,0.00,Weather View 32 v70,2013-05-04 16:20:00,
2013-05-04 12:27:00,66.0,45.7,29.93,ENE,67,5.0,15.0,48,0.00,,,0.00,Weather View 32 v70,2013-05-04 16:27:00,
2013-05-04 12:35:00,65.0,41.9,29.93,East,90,10.0,13.0,43,0.00,,,0.00,Weather View 32 v70,2013-05-04 16:35:00,
2013-05-04 12:40:00,65.0,46.9,29.93,East,90,3.0,13.0,52,0.00,,,0.00,Weather View 32 v70,2013-05-04 16:40:00,
2013-05-04 12:50:00,65.0,44.2,29.94,East,90,5.0,13.0,47,0.00,,,0.00,Weather View 32 v70,2013-05-04 16:50:00,
2013-05-04 12:55:00,65.0,45.9,29.94,East,90,5.0,13.0,50,0.00,,,0.00,Weather View 32 v70,2013-05-04 16:55:00,
2013-05-04 13:05:00,65.0,46.4,29.93,East,90,5.0,13.0,51,0.00,,,0.00,Weather View 32 v70,2013-05-04 17:05:00,
2013-05-04 13:15:00,66.0,47.8,29.93,East,90,2.0,14.0,52,0.00,,,0.00,Weather View 32 v70,2013-05-04 17:15:00,
2013-05-04 13:25:00,67.0,47.7,29.93,East,90,5.0,14.0,50,0.00,,,0.00,Weather View 32 v70,2013-05-04 17:25:00,
2013-05-04 13:35:00,66.0,47.8,29.92,East,90,5.0,14.0,52,0.00,,,0.00,Weather View 32 v70,2013-05-04 17:35:00,
2013-05-04 13:45:00,67.0,46.1,29.92,East,90,5.0,14.0,47,0.00,,,0.00,Weather View 32 v70,2013-05-04 17:45:00,
2013-05-04 13:55:00,67.0,47.7,29.92,South,180,5.0,14.0,50,0.00,,,0.00,Weather View 32 v70,2013-05-04 17:55:00,
2013-05-04 14:00:00,67.0,46.6,29.92,SSE,157,8.0,14.0,48,0.00,,,0.00,Weather View 32 v70,2013-05-04 18:00:00,
2013-05-04 14:10:00,67.0,47.2,29.91,SE,135,3.0,14.0,49,0.00,,,0.00,Weather View 32 v70,2013-05-04 18:10:00,
2013-05-04 14:15:00,67.0,49.8,29.91,East,90,0.0,13.0,54,0.00,,,0.00,Weather View 32 v70,2013-05-04 18:15:00,
2013-05-04 14:20:00,67.0,47.7,29.91,SE,135,7.0,13.0,50,0.00,,,0.00,Weather View 32 v70,2013-05-04 18:20:00,
2013-05-04 14:28:00,67.0,48.2,29.91,ESE,112,6.0,12.0,51,0.00,,,0.00,Weather View 32 v70,2013-05-04 18:28:00,
2013-05-04 14:35:00,67.0,48.7,29.92,SSE,157,9.0,12.0,52,0.00,,,0.00,Weather View 32 v70,2013-05-04 18:35:00,
2013-05-04 14:45:00,67.0,49.3,29.92,South,180,7.0,12.0,53,0.00,,,0.00,Weather View 32 v70,2013-05-04 18:45:00,
2013-05-04 14:55:00,68.0,51.7,29.92,SE,135,5.0,11.0,56,0.00,,,0.00,Weather View 32 v70,2013-05-04 18:55:00,
2013-05-04 15:00:00,69.0,53.1,29.92,SE,135,5.0,11.0,57,0.00,,,0.00,Weather View 32 v70,2013-05-04 19:00:00,
2013-05-04 15:10:00,70.0,51.0,29.92,SSE,157,4.0,11.0,51,0.00,,,0.00,Weather View 32 v70,2013-05-04 19:10:00,
2013-05-04 15:20:00,70.0,52.0,29.90,SSW,202,3.0,12.0,53,0.00,,,0.00,Weather View 32 v70,2013-05-04 19:20:00,
2013-05-04 15:29:00,70.0,51.5,29.90,SE,135,7.0,12.0,52,0.00,,,0.00,Weather View 32 v70,2013-05-04 19:29:00,
2013-05-04 15:35:00,71.0,50.3,29.90,East,90,1.0,12.0,48,0.00,,,0.00,Weather View 32 v70,2013-05-04 19:35:00,
2013-05-04 15:40:00,72.0,52.8,29.89,South,180,5.0,12.0,51,0.00,,,0.00,Weather View 32 v70,2013-05-04 19:40:00,
2013-05-04 15:50:00,72.0,50.0,29.88,SW,225,7.0,12.0,46,0.00,,,0.00,Weather View 32 v70,2013-05-04 19:50:00,
2013-05-04 16:00:00,72.0,51.2,29.88,SW,225,4.0,12.0,48,0.00,,,0.00,Weather View 32 v70,2013-05-04 20:00:00,
2013-05-04 16:10:00,71.0,50.3,29.88,SE,135,0.0,12.0,48,0.00,,,0.00,Weather View 32 v70,2013-05-04 20:10:00,
2013-05-04 16:20:00,72.0,50.0,29.87,NE,45,6.0,12.0,46,0.00,,,0.00,Weather View 32 v70,2013-05-04 20:20:00,
2013-05-04 16:25:00,71.0,50.8,29.87,NE,45,0.0,11.0,49,0.00,,,0.00,Weather View 32 v70,2013-05-04 20:25:00,
2013-05-04 16:35:00,71.0,50.8,29.87,NE,45,5.0,11.0,49,0.00,,,0.00,Weather View 32 v70,2013-05-04 20:35:00,
2013-05-04 16:45:00,70.0,51.0,29.87,ENE,67,0.0,11.0,51,0.00,,,0.00,Weather View 32 v70,2013-05-04 20:45:00,
2013-05-04 16:50:00,69.0,55.4,29.87,SW,225,4.0,11.0,62,0.00,,,0.00,Weather View 32 v70,2013-05-04 20:50:00,
2013-05-04 17:00:00,65.0,56.1,29.88,SW,225,6.0,13.0,73,0.00,,,0.00,Weather View 32 v70,2013-05-04 21:00:00,
2013-05-04 17:10:00,64.0,58.0,29.89,WSW,247,6.0,13.0,81,0.00,,,0.00,Weather View 32 v70,2013-05-04 21:10:00,
2013-05-04 17:20:00,63.0,58.1,29.90,NW,315,2.0,13.0,84,0.00,,,0.00,Weather View 32 v70,2013-05-04 21:20:00,
2013-05-04 17:30:00,63.0,58.4,29.90,NW,315,4.0,13.0,85,0.00,,,0.00,Weather View 32 v70,2013-05-04 21:30:00,
2013-05-04 17:40:00,62.0,58.7,29.90,WSW,247,1.0,13.0,89,0.00,,,0.00,Weather View 32 v70,2013-05-04 21:40:00,
2013-05-04 17:50:00,61.0,58.7,29.91,SW,225,6.0,13.0,92,0.00,,,0.00,Weather View 32 v70,2013-05-04 21:50:00,
2013-05-04 18:00:00,60.0,58.6,29.92,West,270,3.0,12.0,95,0.00,,,0.00,Weather View 32 v70,2013-05-04 22:00:00,
2013-05-04 18:10:00,59.0,58.1,29.92,West,270,0.0,12.0,97,0.00,,,0.00,Weather View 32 v70,2013-05-04 22:10:00,
2013-05-04 18:20:00,58.0,58.0,29.92,SW,225,3.0,12.0,100,0.00,,,0.00,Weather View 32 v70,2013-05-04 22:20:00,
2013-05-04 18:30:00,57.0,57.0,29.94,WSW,247,1.0,12.0,100,0.00,,,0.00,Weather View 32 v70,2013-05-04 22:30:00,
2013-05-04 18:35:00,57.0,57.0,29.94,West,270,0.0,12.0,100,0.01,,,0.01,Weather View 32 v70,2013-05-04 22:35:00,
2013-05-04 18:45:00,55.0,55.0,29.95,WSW,247,7.0,12.0,100,0.04,,,0.04,Weather View 32 v70,2013-05-04 22:45:00,
2013-05-04 18:50:00,55.0,55.0,29.96,SW,225,4.0,12.0,100,0.04,,,0.04,Weather View 32 v70,2013-05-04 22:50:00,
2013-05-04 19:00:00,55.0,55.0,29.96,SW,225,4.0,11.0,100,0.05,,,0.05,Weather View 32 v70,2013-05-04 23:00:00,
2013-05-04 19:10:00,55.0,55.0,29.96,WSW,247,3.0,11.0,100,0.05,,,0.05,Weather View 32 v70,2013-05-04 23:10:00,
2013-05-04 19:20:00,55.0,55.0,29.98,SW,225,0.0,11.0,100,0.07,,,0.07,Weather View 32 v70,2013-05-04 23:20:00,
2013-05-04 19:25:00,54.0,54.0,29.98,SW,225,0.0,10.0,100,0.09,,,0.09,Weather View 32 v70,2013-05-04 23:25:00,
2013-05-04 19:31:00,54.0,54.0,29.98,WNW,292,0.0,10.0,100,0.10,,,0.10,Weather View 32 v70,2013-05-04 23:31:00,
2013-05-04 19:40:00,54.0,54.0,29.98,WSW,247,0.0,10.0,100,0.10,,,0.12,Weather View 32 v70,2013-05-04 23:40:00,
2013-05-04 19:50:00,54.0,54.0,29.98,WNW,292,0.0,10.0,100,0.10,,,0.14,Weather View 32 v70,2013-05-04 23:50:00,
2013-05-04 20:00:00,54.0,54.0,29.98,West,270,0.0,10.0,100,0.09,,,0.14,Weather View 32 v70,2013-05-05 00:00:00,
2013-05-04 20:05:00,54.0,54.0,29.98,West,270,0.0,10.0,100,0.09,,,0.14,Weather View 32 v70,2013-05-05 00:05:00,
2013-05-04 20:15:00,53.0,53.0,29.98,West,270,0.0,7.0,100,0.08,,,0.14,Weather View 32 v70,2013-05-05 00:15:00,
2013-05-04 20:25:00,54.0,54.0,29.99,SW,225,0.0,4.0,100,0.06,,,0.15,Weather View 32 v70,2013-05-05 00:25:00,
2013-05-04 20:30:00,54.0,54.0,29.99,WSW,247,0.0,4.0,100,0.05,,,0.15,Weather View 32 v70,2013-05-05 00:30:00,
2013-05-04 20:40:00,53.0,53.0,30.00,SW,225,3.0,4.0,100,0.05,,,0.17,Weather View 32 v70,2013-05-05 00:40:00,
2013-05-04 20:45:00,53.0,53.0,30.00,WSW,247,0.0,8.0,100,0.07,,,0.20,Weather View 32 v70,2013-05-05 00:45:00,
2013-05-04 20:55:00,53.0,53.0,30.01,SW,225,0.0,8.0,100,0.08,,,0.22,Weather View 32 v70,2013-05-05 00:55:00,
2013-05-04 21:05:00,53.0,53.0,30.01,SW,225,0.0,8.0,100,0.10,,,0.24,Weather View 32 v70,2013-05-05 01:05:00,
2013-05-04 21:15:00,53.0,53.0,30.01,WNW,292,0.0,8.0,100,0.11,,,0.25,Weather View 32 v70,2013-05-05 01:15:00,
2013-05-04 21:20:00,53.0,53.0,30.01,NW,315,1.0,8.0,100,0.12,,,0.26,Weather View 32 v70,2013-05-05 01:20:00,
2013-05-04 21:30:00,53.0,53.0,30.00,NW,315,0.0,8.0,100,0.11,,,0.26,Weather View 32 v70,2013-05-05 01:30:00,
2013-05-04 21:40:00,53.0,53.0,30.01,NW,315,0.0,8.0,100,0.10,,,0.27,Weather View 32 v70,2013-05-05 01:40:00,
2013-05-04 21:45:00,53.0,53.0,30.01,WNW,292,0.0,5.0,100,0.07,,,0.27,Weather View 32 v70,2013-05-05 01:45:00,
2013-05-04 21:55:00,53.0,53.0,30.01,NNE,22,0.0,5.0,100,0.06,,,0.28,Weather View 32 v70,2013-05-05 01:55:00,
2013-05-04 22:00:00,53.0,53.0,30.00,NNE,22,0.0,5.0,100,0.06,,,0.29,Weather View 32 v70,2013-05-05 02:00:00,
2013-05-04 22:10:00,53.0,53.0,30.01,North,360,0.0,5.0,100,0.05,,,0.29,Weather View 32 v70,2013-05-05 02:10:00,
2013-05-04 22:20:00,53.0,53.0,30.01,NW,315,0.0,5.0,100,0.04,,,0.30,Weather View 32 v70,2013-05-05 02:20:00,
2013-05-04 22:25:00,53.0,53.0,30.01,NW,315,0.0,5.0,100,0.04,,,0.30,Weather View 32 v70,2013-05-05 02:25:00,
2013-05-04 22:33:00,53.0,53.0,30.01,NW,315,0.0,5.0,100,0.04,,,0.30,Weather View 32 v70,2013-05-05 02:33:00,
2013-05-04 22:40:00,53.0,53.0,30.02,SW,225,0.0,5.0,100,0.03,,,0.30,Weather View 32 v70,2013-05-05 02:40:00,
2013-05-04 22:50:00,53.0,53.0,30.02,SW,225,0.0,5.0,100,0.03,,,0.31,Weather View 32 v70,2013-05-05 02:50:00,
2013-05-04 23:00:00,53.0,53.0,30.02,SW,225,0.0,3.0,100,0.04,,,0.33,Weather View 32 v70,2013-05-05 03:00:00,
2013-05-04 23:10:00,53.0,53.0,30.02,NNE,22,2.0,3.0,100,0.07,,,0.36,Weather View 32 v70,2013-05-05 03:10:00,
2013-05-04 23:15:00,53.0,53.0,30.02,NE,45,0.0,4.0,100,0.08,,,0.37,Weather View 32 v70,2013-05-05 03:15:00,
2013-05-04 23:25:00,53.0,53.0,30.02,NNE,22,5.0,6.0,100,0.07,,,0.37,Weather View 32 v70,2013-05-05 03:25:00,
2013-05-04 23:33:00,53.0,53.0,30.01,NNE,22,0.0,6.0,100,0.08,,,0.38,Weather View 32 v70,2013-05-05 03:33:00,
2013-05-04 23:40:00,53.0,53.0,30.00,NE,45,0.0,6.0,100,0.08,,,0.38,Weather View 32 v70,2013-05-05 03:40:00,
2013-05-04 23:50:00,53.0,53.0,30.00,NNE,22,0.0,6.0,100,0.08,,,0.39,Weather View 32 v70,2013-05-05 03:50:00,